| time (UTC) | temp F | wind direction | speed MPH | gust MPH | rain 1hr in | rain 24hr in | rain mn in | humidity % | barometer mb |
| 20260507154752 | 53 | 214 | 5.0 | 7.0 | 0.00 | 0.00 | 0.00 | 49 | 1013.3 |
| 20260507154250 | 51 | 81 | 2.0 | 2.0 | 0.00 | 0.00 | 0.00 | 55 | 1013.5 |
| 20260507153746 | 51 | 300 | 2.0 | 5.0 | 0.00 | 0.00 | 0.00 | 53 | 1013.3 |
| 20260507153243 | 51 | 328 | 2.0 | 2.0 | 0.00 | 0.00 | 0.00 | 55 | 1013.5 |
| 20260507152739 | 51 | 103 | 2.0 | 3.0 | 0.00 | 0.00 | 0.00 | 55 | 1013.7 |
| 20260507152236 | 54 | 297 | 1.0 | 1.0 | 0.00 | 0.00 | 0.00 | 51 | 1013.6 |
| 20260507151732 | 53 | 242 | 0.0 | 1.0 | 0.00 | 0.00 | 0.00 | 51 | 1013.7 |
| 20260507151228 | 52 | 214 | 4.0 | 6.0 | 0.00 | 0.00 | 0.00 | 50 | 1013.9 |
| 20260507150725 | 52 | 264 | 2.0 | 3.0 | 0.00 | 0.00 | 0.00 | 51 | 1013.9 |
| 20260507150222 | 52 | 323 | 1.0 | 1.0 | 0.00 | 0.00 | 0.00 | 52 | 1013.9 |
| 20260507145718 | 53 | 157 | 3.0 | 3.0 | 0.00 | 0.00 | 0.00 | 48 | 1013.9 |
| 20260507145215 | 51 | 279 | 1.0 | 2.0 | 0.00 | 0.00 | 0.00 | 53 | 1014.2 |
| 20260507144712 | 51 | 26 | 2.0 | 3.0 | 0.00 | 0.00 | 0.00 | 53 | 1014.2 |
| 20260507144210 | 51 | 306 | 2.0 | 3.0 | 0.00 | 0.00 | 0.00 | 53 | 1014.1 |
| 20260507143706 | 51 | 332 | 1.0 | 2.0 | 0.00 | 0.00 | 0.00 | 53 | 1014.3 |
| 20260507143203 | 52 | 331 | 3.0 | 3.0 | 0.00 | 0.00 | 0.00 | 54 | 1014.3 |
| 20260507142659 | 51 | 292 | 4.0 | 6.0 | 0.00 | 0.00 | 0.00 | 54 | 1014.2 |
| 20260507142156 | 53 | 252 | 2.0 | 2.0 | 0.00 | 0.00 | 0.00 | 52 | 1014.4 |
| 20260507141652 | 51 | 218 | 2.0 | 2.0 | 0.00 | 0.00 | 0.00 | 56 | 1014.6 |
| 20260507141149 | 51 | 247 | 1.0 | 1.0 | 0.00 | 0.00 | 0.00 | 56 | 1014.6 |
| 20260507140645 | 51 | 275 | 1.0 | 2.0 | 0.00 | 0.00 | 0.00 | 56 | 1014.6 |
| 20260507140143 | 50 | 306 | 0.0 | 1.0 | 0.00 | 0.00 | 0.00 | 60 | 1014.5 |
| 20260507135640 | 50 | 22 | 3.0 | 3.0 | 0.00 | 0.00 | 0.00 | 57 | 1014.9 |
| 20260507135137 | 49 | 270 | 3.0 | 3.0 | 0.00 | 0.00 | 0.00 | 58 | 1014.8 |
| 20260507134633 | 50 | 286 | 1.0 | 2.0 | 0.00 | 0.00 | 0.00 | 56 | 1014.9 |
| 20260507134130 | 50 | 309 | 1.0 | 1.0 | 0.00 | 0.00 | 0.00 | 61 | 1014.8 |
| 20260507133625 | 49 | 284 | 2.0 | 2.0 | 0.00 | 0.00 | 0.00 | 59 | 1015.0 |
| 20260507133123 | 50 | 327 | 2.0 | 2.0 | 0.00 | 0.00 | 0.00 | 55 | 1014.9 |
| 20260507132620 | 50 | 250 | 1.0 | 1.0 | 0.00 | 0.00 | 0.00 | 57 | 1014.5 |
| 20260507132116 | 50 | 227 | 2.0 | 3.0 | 0.00 | 0.00 | 0.00 | 56 | 1014.6 |
| 20260507131613 | 50 | 253 | 1.0 | 2.0 | 0.00 | 0.00 | 0.00 | 57 | 1014.8 |
| 20260507131111 | 49 | 265 | 0.0 | 0.0 | 0.00 | 0.00 | 0.00 | 58 | 1014.9 |
| 20260507130607 | 48 | 268 | 1.0 | 2.0 | 0.00 | 0.00 | 0.00 | 61 | 1015.0 |
| 20260507130106 | 49 | 241 | 2.0 | 2.0 | 0.00 | 0.00 | 0.00 | 60 | 1014.9 |
| 20260507125604 | 48 | 264 | 0.0 | 0.0 | 0.00 | 0.00 | 0.00 | 62 | 1014.8 |
| 20260507125101 | 47 | 250 | 1.0 | 1.0 | 0.00 | 0.00 | 0.00 | 65 | 1015.0 |
| 20260507124557 | 47 | 287 | 1.0 | 2.0 | 0.00 | 0.00 | 0.00 | 65 | 1015.0 |
| 20260507124055 | 46 | 262 | 1.0 | 1.0 | 0.00 | 0.00 | 0.00 | 67 | 1014.9 |
| 20260507123553 | 46 | 264 | 0.0 | 1.0 | 0.00 | 0.00 | 0.00 | 67 | 1015.0 |
| 20260507123050 | 44 | 273 | 1.0 | 2.0 | 0.00 | 0.00 | 0.00 | 70 | 1015.3 |
| 20260507122545 | 43 | 272 | 0.0 | 0.0 | 0.00 | 0.00 | 0.00 | 73 | 1015.1 |
| 20260507122041 | 43 | 269 | 0.0 | 0.0 | 0.00 | 0.00 | 0.00 | 73 | 1015.0 |
| 20260507121537 | 42 | 256 | 1.0 | 1.0 | 0.00 | 0.00 | 0.00 | 73 | 1015.1 |
| 20260507121033 | 42 | 266 | 0.0 | 1.0 | 0.00 | 0.00 | 0.00 | 75 | 1014.6 |
| 20260507120529 | 41 | 278 | 0.0 | 1.0 | 0.00 | 0.00 | 0.00 | 75 | 1014.6 |
| 20260507120026 | 41 | 277 | 0.0 | 0.0 | 0.00 | 0.00 | 0.00 | 75 | 1014.5 |
| 20260507115522 | 40 | 240 | 0.0 | 1.0 | 0.00 | 0.00 | 0.00 | 79 | 1014.8 |
| 20260507115018 | 40 | 270 | 0.0 | 0.0 | 0.00 | 0.00 | 0.00 | 80 | 1014.9 |
| 20260507114514 | 40 | 269 | 0.0 | 1.0 | 0.00 | 0.00 | 0.00 | 80 | 1014.8 |
| 20260507114012 | 39 | 228 | 1.0 | 2.0 | 0.00 | 0.00 | 0.00 | 80 | 1014.6 |
| 20260507113509 | 39 | 262 | 0.0 | 0.0 | 0.00 | 0.00 | 0.00 | 82 | 1014.6 |
| 20260507113006 | 38 | 262 | 0.0 | 0.0 | 0.00 | 0.00 | 0.00 | 82 | 1014.4 |
| 20260507112503 | 38 | 268 | 0.0 | 0.0 | 0.00 | 0.00 | 0.00 | 83 | 1014.4 |
| 20260507112000 | 37 | 270 | 0.0 | 0.0 | 0.00 | 0.00 | 0.00 | 85 | 1014.3 |
| 20260507111457 | 37 | 263 | 0.0 | 1.0 | 0.00 | 0.00 | 0.00 | 87 | 1014.3 |
| 20260507110953 | 37 | 261 | 0.0 | 0.0 | 0.00 | 0.00 | 0.00 | 88 | 1014.2 |
| 20260507110450 | 37 | 267 | 0.0 | 0.0 | 0.00 | 0.00 | 0.00 | 89 | 1014.3 |
| 20260507105946 | 36 | 262 | 0.0 | 0.0 | 0.00 | 0.00 | 0.00 | 90 | 1014.2 |
| 20260507105443 | 36 | 262 | 0.0 | 0.0 | 0.00 | 0.00 | 0.00 | 92 | 1014.3 |
| 20260507104940 | 35 | 269 | 0.0 | 0.0 | 0.00 | 0.00 | 0.00 | 93 | 1014.1 |
| 20260507104437 | 35 | 262 | 0.0 | 0.0 | 0.00 | 0.00 | 0.00 | 94 | 1014.1 |
| 20260507103933 | 35 | 271 | 0.0 | 0.0 | 0.00 | 0.00 | 0.00 | 94 | 1014.2 |
| 20260507103430 | 35 | 271 | 0.0 | 0.0 | 0.00 | 0.00 | 0.00 | 94 | 1013.9 |
| 20260507102926 | 34 | 271 | 0.0 | 0.0 | 0.00 | 0.00 | 0.00 | 93 | 1013.9 |
| 20260507102423 | 35 | 271 | 0.0 | 0.0 | 0.00 | 0.00 | 0.00 | 93 | 1013.9 |
| 20260507101919 | 35 | 269 | 0.0 | 0.0 | 0.00 | 0.00 | 0.00 | 93 | 1014.0 |
| 20260507101414 | 35 | 269 | 0.0 | 0.0 | 0.00 | 0.00 | 0.00 | 92 | 1013.8 |
| 20260507100911 | 35 | 269 | 0.0 | 0.0 | 0.00 | 0.00 | 0.00 | 92 | 1013.8 |
| 20260507100409 | 35 | 269 | 0.0 | 0.0 | 0.00 | 0.00 | 0.00 | 91 | 1013.8 |
| 20260507095907 | 35 | 264 | 0.0 | 0.0 | 0.00 | 0.00 | 0.00 | 91 | 1013.8 |
| 20260507095403 | 36 | 268 | 0.0 | 0.0 | 0.00 | 0.00 | 0.00 | 90 | 1013.7 |
| 20260507094901 | 36 | 268 | 0.0 | 0.0 | 0.00 | 0.00 | 0.00 | 89 | 1013.9 |
| 20260507094357 | 36 | 271 | 0.0 | 0.0 | 0.00 | 0.00 | 0.00 | 89 | 1013.9 |
| 20260507093854 | 36 | 261 | 0.0 | 1.0 | 0.00 | 0.00 | 0.00 | 89 | 1014.0 |
| 20260507093352 | 36 | 262 | 0.0 | 0.0 | 0.00 | 0.00 | 0.00 | 88 | 1013.8 |
| 20260507092850 | 37 | 262 | 0.0 | 0.0 | 0.00 | 0.00 | 0.00 | 88 | 1014.0 |
| 20260507092346 | 37 | 262 | 0.0 | 0.0 | 0.00 | 0.00 | 0.00 | 88 | 1013.7 |
| 20260507091843 | 37 | 262 | 0.0 | 0.0 | 0.00 | 0.00 | 0.00 | 88 | 1014.1 |
| 20260507091339 | 37 | 262 | 0.0 | 0.0 | 0.00 | 0.00 | 0.00 | 88 | 1014.0 |
| 20260507090835 | 37 | 262 | 0.0 | 0.0 | 0.00 | 0.00 | 0.00 | 88 | 1013.8 |
| 20260507090331 | 37 | 262 | 0.0 | 0.0 | 0.00 | 0.00 | 0.00 | 88 | 1013.9 |
| 20260507085828 | 37 | 262 | 0.0 | 0.0 | 0.00 | 0.00 | 0.00 | 88 | 1013.8 |
| 20260507085325 | 37 | 262 | 0.0 | 0.0 | 0.00 | 0.00 | 0.00 | 88 | 1014.0 |
| 20260507084823 | 37 | 262 | 0.0 | 0.0 | 0.00 | 0.00 | 0.00 | 87 | 1014.0 |
| 20260507084319 | 38 | 262 | 0.0 | 0.0 | 0.00 | 0.00 | 0.00 | 87 | 1014.1 |
| 20260507083816 | 38 | 262 | 0.0 | 0.0 | 0.00 | 0.00 | 0.00 | 87 | 1014.0 |
| 20260507083313 | 38 | 262 | 0.0 | 0.0 | 0.00 | 0.00 | 0.00 | 88 | 1014.0 |
| 20260507082809 | 38 | 262 | 0.0 | 0.0 | 0.00 | 0.00 | 0.00 | 88 | 1013.8 |
| 20260507082306 | 38 | 262 | 0.0 | 0.0 | 0.00 | 0.00 | 0.00 | 88 | 1013.8 |
| 20260507081802 | 39 | 262 | 0.0 | 0.0 | 0.00 | 0.00 | 0.00 | 88 | 1013.9 |
| 20260507081257 | 39 | 262 | 0.0 | 0.0 | 0.00 | 0.00 | 0.00 | 86 | 1013.8 |
| 20260507080755 | 40 | 262 | 0.0 | 0.0 | 0.00 | 0.00 | 0.00 | 85 | 1014.0 |
| 20260507080251 | 40 | 262 | 0.0 | 0.0 | 0.00 | 0.00 | 0.00 | 84 | 1014.1 |
| 20260507075746 | 41 | 262 | 0.0 | 0.0 | 0.00 | 0.00 | 0.00 | 82 | 1014.1 |
| 20260507075242 | 41 | 262 | 0.0 | 0.0 | 0.00 | 0.00 | 0.00 | 81 | 1014.3 |
| 20260507074739 | 41 | 262 | 0.0 | 0.0 | 0.00 | 0.00 | 0.00 | 80 | 1014.1 |
| 20260507074237 | 41 | 262 | 0.0 | 0.0 | 0.00 | 0.00 | 0.00 | 81 | 1014.1 |
| 20260507073733 | 41 | 262 | 0.0 | 0.0 | 0.00 | 0.00 | 0.00 | 80 | 1013.8 |
| 20260507073230 | 41 | 262 | 0.0 | 0.0 | 0.00 | 0.00 | 0.00 | 79 | 1013.9 |
| 20260507072728 | 41 | 262 | 0.0 | 0.0 | 0.00 | 0.00 | 0.00 | 79 | 1014.0 |
| 20260507072225 | 41 | 250 | 1.0 | 1.0 | 0.00 | 0.00 | 0.00 | 78 | 1014.0 |
| 20260507071723 | 41 | 267 | 0.0 | 0.0 | 0.00 | 0.00 | 0.00 | 78 | 1014.0 |
| 20260507071219 | 41 | 267 | 0.0 | 0.0 | 0.00 | 0.00 | 0.00 | 78 | 1014.1 |
| 20260507070716 | 41 | 267 | 0.0 | 0.0 | 0.00 | 0.00 | 0.00 | 77 | 1014.0 |
| 20260507070213 | 41 | 267 | 0.0 | 0.0 | 0.00 | 0.00 | 0.00 | 77 | 1014.1 |
| 20260507065709 | 41 | 277 | 0.0 | 0.0 | 0.00 | 0.00 | 0.00 | 75 | 1013.9 |
| 20260507065206 | 41 | 261 | 0.0 | 0.0 | 0.00 | 0.00 | 0.00 | 77 | 1014.0 |
| 20260507064703 | 41 | 279 | 0.0 | 0.0 | 0.00 | 0.00 | 0.00 | 76 | 1013.9 |
| 20260507064202 | 41 | 282 | 0.0 | 0.0 | 0.00 | 0.00 | 0.00 | 77 | 1013.7 |
| 20260507063700 | 42 | 273 | 0.0 | 0.0 | 0.00 | 0.00 | 0.00 | 77 | 1014.2 |
| 20260507063156 | 42 | 272 | 0.0 | 0.0 | 0.00 | 0.00 | 0.00 | 78 | 1014.0 |
| 20260507062653 | 42 | 278 | 0.0 | 1.0 | 0.00 | 0.00 | 0.00 | 79 | 1014.1 |
| 20260507062150 | 42 | 281 | 2.0 | 2.0 | 0.00 | 0.00 | 0.00 | 80 | 1014.2 |
| 20260507061648 | 42 | 269 | 2.0 | 2.0 | 0.00 | 0.00 | 0.00 | 80 | 1014.3 |
| 20260507061146 | 42 | 271 | 1.0 | 1.0 | 0.00 | 0.00 | 0.00 | 81 | 1014.2 |
| 20260507060644 | 42 | 271 | 0.0 | 0.0 | 0.00 | 0.00 | 0.00 | 81 | 1014.2 |
| 20260507060140 | 42 | 271 | 0.0 | 0.0 | 0.00 | 0.00 | 0.00 | 81 | 1014.4 |
| 20260507055635 | 42 | 270 | 0.0 | 0.0 | 0.00 | 0.00 | 0.00 | 80 | 1014.4 |
| 20260507055132 | 42 | 270 | 0.0 | 0.0 | 0.00 | 0.00 | 0.00 | 79 | 1014.3 |
| 20260507054627 | 42 | 270 | 0.0 | 0.0 | 0.00 | 0.00 | 0.00 | 79 | 1014.6 |
| 20260507054125 | 42 | 270 | 0.0 | 0.0 | 0.00 | 0.00 | 0.00 | 79 | 1014.5 |
| 20260507053623 | 42 | 270 | 0.0 | 0.0 | 0.00 | 0.00 | 0.00 | 79 | 1014.5 |
| 20260507053121 | 42 | 270 | 0.0 | 0.0 | 0.00 | 0.00 | 0.00 | 78 | 1014.3 |
| 20260507052619 | 42 | 270 | 0.0 | 0.0 | 0.00 | 0.00 | 0.00 | 78 | 1014.2 |
| 20260507052115 | 42 | 271 | 0.0 | 0.0 | 0.00 | 0.00 | 0.00 | 78 | 1014.3 |
| 20260507051613 | 42 | 271 | 0.0 | 0.0 | 0.00 | 0.00 | 0.00 | 77 | 1014.4 |
| 20260507051109 | 42 | 269 | 1.0 | 2.0 | 0.00 | 0.00 | 0.00 | 78 | 1014.8 |
| 20260507050606 | 42 | 271 | 0.0 | 0.0 | 0.00 | 0.00 | 0.00 | 77 | 1014.4 |
| 20260507045559 | 43 | 269 | 1.0 | 1.0 | 0.00 | 0.00 | 0.00 | 76 | 1014.5 |
| 20260507045056 | 43 | 270 | 0.0 | 1.0 | 0.00 | 0.00 | 0.00 | 76 | 1014.5 |
| 20260507044553 | 43 | 271 | 0.0 | 1.0 | 0.00 | 0.00 | 0.00 | 78 | 1014.5 |
| 20260507044050 | 43 | 269 | 1.0 | 1.0 | 0.00 | 0.00 | 0.00 | 78 | 1014.8 |
| 20260507043545 | 43 | 270 | 0.0 | 0.0 | 0.00 | 0.00 | 0.00 | 79 | 1014.9 |
| 20260507043043 | 43 | 271 | 0.0 | 0.0 | 0.00 | 0.00 | 0.00 | 79 | 1014.6 |
| 20260507042539 | 43 | 270 | 0.0 | 0.0 | 0.00 | 0.00 | 0.00 | 79 | 1014.5 |
| 20260507042035 | 43 | 271 | 0.0 | 0.0 | 0.00 | 0.00 | 0.00 | 77 | 1014.6 |
| 20260507041532 | 43 | 272 | 0.0 | 1.0 | 0.00 | 0.00 | 0.00 | 80 | 1014.9 |
| 20260507041029 | 43 | 269 | 0.0 | 0.0 | 0.00 | 0.00 | 0.00 | 78 | 1014.5 |
| 20260507040525 | 44 | 271 | 0.0 | 0.0 | 0.00 | 0.00 | 0.00 | 79 | 1014.8 |
| 20260507040021 | 44 | 272 | 0.0 | 0.0 | 0.00 | 0.20 | 0.20 | 77 | 1014.5 |
| 20260507035517 | 44 | 267 | 0.0 | 0.0 | 0.00 | 0.20 | 0.20 | 77 | 1014.9 |
| 20260507035014 | 44 | 272 | 0.0 | 0.0 | 0.00 | 0.20 | 0.20 | 79 | 1014.6 |
| 20260507034511 | 44 | 268 | 0.0 | 0.0 | 0.00 | 0.20 | 0.20 | 81 | 1014.3 |
| 20260507034009 | 44 | 261 | 1.0 | 1.0 | 0.00 | 0.20 | 0.20 | 80 | 1014.3 |
| 20260507033507 | 44 | 270 | 0.0 | 0.0 | 0.00 | 0.20 | 0.20 | 81 | 1014.0 |
| 20260507033004 | 44 | 274 | 0.0 | 0.0 | 0.00 | 0.20 | 0.20 | 80 | 1014.1 |
| 20260507032500 | 44 | 278 | 0.0 | 0.0 | 0.00 | 0.20 | 0.20 | 81 | 1014.2 |
| 20260507031956 | 44 | 274 | 0.0 | 0.0 | 0.00 | 0.20 | 0.20 | 80 | 1014.3 |
| 20260507031453 | 44 | 269 | 1.0 | 1.0 | 0.00 | 0.20 | 0.20 | 80 | 1014.4 |
| 20260507030950 | 44 | 271 | 0.0 | 1.0 | 0.00 | 0.20 | 0.20 | 79 | 1014.4 |
| 20260507030447 | 44 | 256 | 0.0 | 0.0 | 0.00 | 0.20 | 0.20 | 78 | 1014.4 |
| 20260507025944 | 45 | 225 | 2.0 | 2.0 | 0.00 | 0.20 | 0.20 | 78 | 1014.0 |
| 20260507025441 | 45 | 319 | 1.0 | 1.0 | 0.00 | 0.20 | 0.20 | 78 | 1014.3 |
| 20260507024939 | 45 | 324 | 0.0 | 1.0 | 0.00 | 0.20 | 0.20 | 81 | 1014.5 |
| 20260507024436 | 45 | 172 | 1.0 | 2.0 | 0.00 | 0.20 | 0.20 | 81 | 1014.3 |
| 20260507023932 | 45 | 309 | 1.0 | 2.0 | 0.00 | 0.20 | 0.20 | 82 | 1014.3 |
| 20260507023429 | 45 | 286 | 0.0 | 0.0 | 0.00 | 0.20 | 0.20 | 83 | 1014.0 |
| 20260507022926 | 45 | 284 | 1.0 | 2.0 | 0.00 | 0.20 | 0.20 | 83 | 1013.9 |
| 20260507022423 | 45 | 301 | 2.0 | 2.0 | 0.00 | 0.20 | 0.20 | 84 | 1013.9 |
| 20260507021919 | 45 | 330 | 1.0 | 1.0 | 0.00 | 0.20 | 0.20 | 84 | 1013.8 |
| 20260507021414 | 45 | 271 | 1.0 | 1.0 | 0.00 | 0.20 | 0.20 | 86 | 1013.7 |
| 20260507020912 | 45 | 261 | 3.0 | 3.0 | 0.00 | 0.20 | 0.20 | 86 | 1013.5 |
| 20260507020409 | 45 | 287 | 0.0 | 0.0 | 0.00 | 0.20 | 0.20 | 88 | 1013.7 |
| 20260507015906 | 45 | 280 | 1.0 | 1.0 | 0.00 | 0.20 | 0.20 | 88 | 1013.4 |
| 20260507015404 | 46 | 217 | 1.0 | 2.0 | 0.00 | 0.20 | 0.20 | 88 | 1013.4 |
| 20260507014900 | 46 | 294 | 1.0 | 1.0 | 0.00 | 0.20 | 0.20 | 89 | 1013.7 |
| 20260507014356 | 46 | 342 | 4.0 | 5.0 | 0.00 | 0.20 | 0.20 | 91 | 1013.6 |
| 20260507013853 | 46 | 289 | 0.0 | 0.0 | 0.00 | 0.20 | 0.20 | 93 | 1013.6 |
| 20260507013350 | 46 | 288 | 1.0 | 1.0 | 0.00 | 0.20 | 0.20 | 94 | 1013.5 |
| 20260507012848 | 46 | 325 | 2.0 | 2.0 | 0.00 | 0.20 | 0.20 | 94 | 1013.5 |
| 20260507012343 | 46 | 300 | 1.0 | 1.0 | 0.00 | 0.20 | 0.20 | 95 | 1013.5 |
| 20260507011841 | 46 | 264 | 0.0 | 0.0 | 0.00 | 0.20 | 0.20 | 94 | 1014.1 |
| 20260507011337 | 46 | 263 | 1.0 | 1.0 | 0.00 | 0.20 | 0.20 | 94 | 1013.9 |
| 20260507010832 | 46 | 255 | 1.0 | 2.0 | 0.00 | 0.20 | 0.20 | 94 | 1014.2 |
| 20260507010328 | 46 | 278 | 0.0 | 1.0 | 0.00 | 0.20 | 0.20 | 94 | 1014.0 |
| 20260507005825 | 47 | 248 | 2.0 | 3.0 | 0.00 | 0.20 | 0.20 | 94 | 1014.0 |
| 20260507005322 | 47 | 261 | 0.0 | 0.0 | 0.00 | 0.20 | 0.20 | 94 | 1014.1 |
| 20260507004819 | 47 | 280 | 0.0 | 1.0 | 0.00 | 0.20 | 0.20 | 94 | 1014.0 |
| 20260507004316 | 47 | 260 | 0.0 | 0.0 | 0.00 | 0.20 | 0.20 | 94 | 1014.3 |
| 20260507003813 | 47 | 268 | 0.0 | 1.0 | 0.00 | 0.20 | 0.20 | 94 | 1014.1 |
| 20260507003308 | 47 | 254 | 0.0 | 0.0 | 0.00 | 0.20 | 0.20 | 95 | 1014.1 |
| 20260507002803 | 47 | 265 | 0.0 | 0.0 | 0.00 | 0.20 | 0.20 | 94 | 1013.8 |
| 20260507002300 | 47 | 254 | 0.0 | 1.0 | 0.00 | 0.20 | 0.20 | 94 | 1013.7 |
| 20260507001757 | 47 | 282 | 0.0 | 1.0 | 0.00 | 0.20 | 0.20 | 94 | 1013.5 |
| 20260507001254 | 47 | 270 | 0.0 | 0.0 | 0.00 | 0.20 | 0.20 | 94 | 1013.9 |
| 20260507000750 | 47 | 256 | 3.0 | 3.0 | 0.00 | 0.20 | 0.20 | 94 | 1013.7 |
| 20260507000246 | 47 | 261 | 0.0 | 1.0 | 0.00 | 0.20 | 0.20 | 94 | 1013.8 |
| 20260506235743 | 47 | 263 | 1.0 | 1.0 | 0.00 | 0.20 | 0.20 | 94 | 1013.7 |
| 20260506235238 | 47 | 257 | 1.0 | 2.0 | 0.00 | 0.20 | 0.20 | 94 | 1013.3 |
| 20260506234736 | 47 | 252 | 1.0 | 1.0 | 0.00 | 0.20 | 0.20 | 94 | 1013.1 |
| 20260506234233 | 47 | 257 | 0.0 | 1.0 | 0.00 | 0.20 | 0.20 | 94 | 1013.2 |
| 20260506233730 | 47 | 261 | 1.0 | 1.0 | 0.00 | 0.20 | 0.20 | 93 | 1013.3 |
| 20260506233227 | 47 | 291 | 0.0 | 1.0 | 0.00 | 0.20 | 0.20 | 93 | 1013.2 |
| 20260506232724 | 47 | 261 | 0.0 | 1.0 | 0.00 | 0.20 | 0.20 | 92 | 1012.7 |
| 20260506232218 | 47 | 294 | 1.0 | 1.0 | 0.00 | 0.20 | 0.20 | 92 | 1012.6 |
| 20260506231716 | 47 | 274 | 0.0 | 0.0 | 0.00 | 0.20 | 0.20 | 93 | 1012.5 |
| 20260506231214 | 47 | 257 | 1.0 | 1.0 | 0.00 | 0.20 | 0.20 | 93 | 1012.8 |
| 20260506230710 | 47 | 208 | 2.0 | 2.0 | 0.00 | 0.20 | 0.20 | 92 | 1012.6 |
| 20260506230208 | 47 | 290 | 0.0 | 1.0 | 0.00 | 0.20 | 0.20 | 93 | 1012.8 |
| 20260506225704 | 47 | 268 | 0.0 | 1.0 | 0.00 | 0.20 | 0.20 | 92 | 1012.6 |
| 20260506225201 | 47 | 266 | 1.0 | 1.0 | 0.00 | 0.20 | 0.20 | 94 | 1012.8 |
| 20260506224657 | 47 | 254 | 2.0 | 2.0 | 0.00 | 0.20 | 0.20 | 93 | 1012.7 |
| 20260506224154 | 47 | 297 | 1.0 | 1.0 | 0.00 | 0.20 | 0.20 | 93 | 1012.7 |
| 20260506223650 | 47 | 262 | 1.0 | 2.0 | 0.00 | 0.20 | 0.20 | 93 | 1012.5 |
| 20260506223146 | 47 | 290 | 1.0 | 2.0 | 0.00 | 0.20 | 0.20 | 95 | 1012.6 |
| 20260506222643 | 47 | 284 | 0.0 | 1.0 | 0.00 | 0.20 | 0.20 | 96 | 1012.8 |
| 20260506222139 | 47 | 226 | 0.0 | 0.0 | 0.00 | 0.20 | 0.20 | 96 | 1012.7 |
| 20260506221637 | 48 | 307 | 0.0 | 1.0 | 0.00 | 0.20 | 0.20 | 97 | 1012.6 |
| 20260506221135 | 48 | 294 | 1.0 | 2.0 | 0.00 | 0.20 | 0.20 | 96 | 1012.7 |
| 20260506220632 | 48 | 287 | 0.0 | 0.0 | 0.00 | 0.20 | 0.20 | 96 | 1012.4 |
| 20260506220127 | 48 | 261 | 0.0 | 1.0 | 0.00 | 0.20 | 0.20 | 96 | 1012.6 |
| 20260506215624 | 48 | 264 | 1.0 | 1.0 | 0.00 | 0.20 | 0.20 | 97 | 1012.2 |
| 20260506215119 | 48 | 247 | 1.0 | 1.0 | 0.00 | 0.20 | 0.20 | 96 | 1012.2 |
| 20260506214616 | 48 | 334 | 1.0 | 2.0 | 0.00 | 0.20 | 0.20 | 96 | 1012.0 |
| 20260506214114 | 48 | 246 | 2.0 | 3.0 | 0.00 | 0.20 | 0.20 | 96 | 1012.4 |
| 20260506213612 | 49 | 269 | 2.0 | 2.0 | 0.00 | 0.20 | 0.20 | 96 | 1012.3 |
| 20260506213109 | 49 | 251 | 1.0 | 2.0 | 0.00 | 0.20 | 0.20 | 97 | 1012.0 |
| 20260506212606 | 49 | 236 | 2.0 | 3.0 | 0.00 | 0.20 | 0.20 | 97 | 1011.8 |
| 20260506212100 | 49 | 256 | 2.0 | 2.0 | 0.00 | 0.20 | 0.20 | 97 | 1011.7 |
| 20260506211556 | 50 | 257 | 1.0 | 1.0 | 0.00 | 0.20 | 0.20 | 97 | 1011.7 |
| 20260506211054 | 49 | 276 | 0.0 | 1.0 | 0.00 | 0.20 | 0.20 | 98 | 1011.6 |
| 20260506210550 | 49 | 253 | 1.0 | 1.0 | 0.00 | 0.20 | 0.20 | 98 | 1011.8 |
| 20260506210047 | 49 | 266 | 1.0 | 2.0 | 0.00 | 0.20 | 0.20 | 98 | 1011.5 |
| 20260506205544 | 49 | 282 | 1.0 | 1.0 | 0.00 | 0.20 | 0.20 | 98 | 1011.2 |
| 20260506205039 | 49 | 265 | 0.0 | 0.0 | 0.00 | 0.20 | 0.20 | 98 | 1011.5 |
| 20260506204537 | 49 | 256 | 1.0 | 1.0 | 0.00 | 0.20 | 0.20 | 98 | 1011.3 |
| 20260506204034 | 49 | 270 | 0.0 | 0.0 | 0.00 | 0.20 | 0.20 | 98 | 1011.1 |
| 20260506203532 | 49 | 310 | 1.0 | 1.0 | 0.00 | 0.20 | 0.20 | 98 | 1011.2 |
| 20260506203028 | 50 | 261 | 0.0 | 1.0 | 0.00 | 0.20 | 0.20 | 99 | 1011.0 |
| 20260506202526 | 49 | 232 | 1.0 | 2.0 | 0.00 | 0.20 | 0.20 | 99 | 1011.0 |
| 20260506202022 | 49 | 277 | 1.0 | 1.0 | 0.00 | 0.20 | 0.20 | 99 | 1011.1 |
| 20260506201520 | 49 | 262 | 0.0 | 1.0 | 0.00 | 0.20 | 0.20 | 99 | 1011.1 |
| 20260506201016 | 49 | 307 | 1.0 | 1.0 | 0.00 | 0.20 | 0.20 | 99 | 1011.2 |
| 20260506200512 | 49 | 308 | 1.0 | 2.0 | 0.00 | 0.20 | 0.20 | 99 | 1011.6 |
| 20260506200009 | 49 | 329 | 2.0 | 5.0 | 0.00 | 0.20 | 0.20 | 99 | 1011.2 |
| 20260506195506 | 49 | 257 | 0.0 | 1.0 | 0.00 | 0.20 | 0.20 | 99 | 1011.5 |
| 20260506195003 | 49 | 259 | 6.0 | 7.0 | 0.00 | 0.20 | 0.20 | 99 | 1011.1 |
| 20260506194500 | 49 | 278 | 1.0 | 2.0 | 0.00 | 0.20 | 0.20 | 99 | 1011.2 |
| 20260506193956 | 49 | 239 | 1.0 | 2.0 | 0.00 | 0.20 | 0.20 | 99 | 1011.0 |
| 20260506193453 | 49 | 258 | 1.0 | 1.0 | 0.00 | 0.20 | 0.20 | 99 | 1011.1 |
| 20260506192945 | 49 | 273 | 1.0 | 2.0 | 0.00 | 0.20 | 0.20 | 99 | 1011.0 |
| 20260506192442 | 49 | 265 | 1.0 | 1.0 | 0.00 | 0.20 | 0.20 | 99 | 1011.1 |
| 20260506191938 | 49 | 193 | 5.0 | 6.0 | 0.00 | 0.20 | 0.20 | 99 | 1011.1 |
| 20260506191435 | 49 | 258 | 4.0 | 6.0 | 0.00 | 0.20 | 0.20 | 99 | 1011.0 |
| 20260506190931 | 50 | 274 | 2.0 | 2.0 | 0.00 | 0.20 | 0.20 | 99 | 1011.2 |
| 20260506190428 | 50 | 264 | 1.0 | 1.0 | 0.00 | 0.20 | 0.20 | 99 | 1011.0 |
| 20260506185925 | 49 | 250 | 3.0 | 3.0 | 0.00 | 0.20 | 0.20 | 99 | 1010.9 |
| 20260506185422 | 50 | 258 | 2.0 | 3.0 | 0.00 | 0.20 | 0.20 | 99 | 1010.9 |
| 20260506184919 | 50 | 262 | 1.0 | 1.0 | 0.00 | 0.20 | 0.20 | 99 | 1010.9 |
| 20260506184416 | 50 | 267 | 1.0 | 1.0 | 0.00 | 0.20 | 0.20 | 99 | 1010.8 |
| 20260506183914 | 50 | 243 | 2.0 | 3.0 | 0.00 | 0.20 | 0.20 | 99 | 1010.7 |
| 20260506183409 | 50 | 248 | 1.0 | 1.0 | 0.00 | 0.20 | 0.20 | 99 | 1010.7 |
| 20260506182906 | 50 | 257 | 1.0 | 1.0 | 0.00 | 0.20 | 0.20 | 99 | 1010.5 |
| 20260506182403 | 50 | 49 | 2.0 | 5.0 | 0.00 | 0.20 | 0.20 | 99 | 1010.6 |
| 20260506181900 | 51 | 18 | 3.0 | 5.0 | 0.00 | 0.20 | 0.20 | 99 | 1010.7 |
| 20260506181358 | 52 | 277 | 1.0 | 1.0 | 0.00 | 0.20 | 0.20 | 99 | 1010.4 |
| 20260506180855 | 52 | 275 | 1.0 | 1.0 | 0.00 | 0.20 | 0.20 | 99 | 1010.3 |
| 20260506180351 | 52 | 261 | 1.0 | 1.0 | 0.00 | 0.20 | 0.20 | 99 | 1010.5 |
| 20260506175848 | 53 | 283 | 0.0 | 0.0 | 0.00 | 0.20 | 0.20 | 99 | 1010.5 |
| 20260506175345 | 53 | 280 | 1.0 | 2.0 | 0.00 | 0.20 | 0.20 | 99 | 1010.4 |
| 20260506174842 | 54 | 201 | 4.0 | 5.0 | 0.00 | 0.20 | 0.20 | 99 | 1010.2 |
| 20260506174339 | 54 | 252 | 2.0 | 3.0 | 0.00 | 0.20 | 0.20 | 99 | 1010.0 |
| 20260506173837 | 54 | 275 | 1.0 | 1.0 | 0.00 | 0.20 | 0.20 | 99 | 1009.9 |
| 20260506173333 | 55 | 256 | 3.0 | 3.0 | 0.00 | 0.20 | 0.20 | 99 | 1010.0 |
| 20260506172830 | 54 | 261 | 2.0 | 2.0 | 0.00 | 0.20 | 0.20 | 99 | 1010.0 |
| 20260506172327 | 54 | 273 | 4.0 | 5.0 | 0.00 | 0.20 | 0.20 | 99 | 1009.7 |
| 20260506171824 | 54 | 221 | 3.0 | 3.0 | 0.00 | 0.20 | 0.20 | 99 | 1010.0 |
| 20260506171321 | 54 | 268 | 2.0 | 3.0 | 0.00 | 0.20 | 0.20 | 99 | 1010.2 |
| 20260506170819 | 54 | 224 | 2.0 | 3.0 | 0.00 | 0.20 | 0.20 | 99 | 1009.9 |
| 20260506170315 | 54 | 255 | 2.0 | 2.0 | 0.00 | 0.20 | 0.20 | 99 | 1009.7 |
| 20260506165814 | 54 | 249 | 1.0 | 1.0 | 0.00 | 0.20 | 0.20 | 99 | 1009.9 |
| 20260506165311 | 54 | 265 | 1.0 | 1.0 | 0.00 | 0.20 | 0.20 | 99 | 1009.6 |
| 20260506164808 | 55 | 9 | 3.0 | 5.0 | 0.00 | 0.20 | 0.20 | 99 | 1009.7 |
| 20260506164304 | 54 | 314 | 1.0 | 3.0 | 0.00 | 0.20 | 0.20 | 99 | 1009.6 |
| 20260506163801 | 53 | 252 | 1.0 | 2.0 | 0.00 | 0.20 | 0.20 | 99 | 1009.6 |
| 20260506163256 | 53 | 245 | 1.0 | 2.0 | 0.00 | 0.20 | 0.20 | 99 | 1009.7 |
| 20260506162752 | 54 | 243 | 2.0 | 2.0 | 0.00 | 0.20 | 0.20 | 99 | 1009.7 |
| 20260506162250 | 54 | 274 | 1.0 | 1.0 | 0.00 | 0.20 | 0.20 | 99 | 1010.0 |
| 20260506161747 | 55 | 273 | 0.0 | 0.0 | 0.00 | 0.20 | 0.20 | 99 | 1009.7 |
| 20260506161245 | 55 | 256 | 2.0 | 2.0 | 0.00 | 0.20 | 0.20 | 99 | 1009.4 |
| 20260506160742 | 56 | 271 | 0.0 | 0.0 | 0.00 | 0.20 | 0.20 | 99 | 1009.5 |
| 20260506160238 | 56 | 224 | 3.0 | 3.0 | 0.07 | 0.20 | 0.20 | 99 | 1009.3 |
| 20260506155737 | 56 | 305 | 4.0 | 6.0 | 0.07 | 0.20 | 0.20 | 99 | 1009.2 |